Weather in Nezhadovo

Russia / Pskov Oblast     58°34′11″N   29°18′14″E
temp.,
°C
wind,
m/s
gust,
m/s
humid.,
%
clouds,
%
prec.,
mm/h
press.,
hPa
HPBL,
m
4 august, wed
wed400:00+12wsw278020 0.0 1010177
03:00+9wsw28880 0.0 1012157
06:00+9wsw39890 0.0 1013205
09:00+16w35625 0.0 1014800
12:00+19w354213 0.0 10152118
15:00+20w453766 0.0 10142499
18:00+16wsw3757100 0.0 1015341
21:00+12n117635 0.0 101610
5 august, thu
thu500:00+10s118057 0.0 101710
03:00+10ne0082100 0.0 101710
06:00+10ese1179100 0.0 101710
09:00+16e1259100 0.0 1017396
12:00+19e244346 0.0 10161988
15:00+17se555594 0.0 1015729
18:00+16e245968 0.0 1015712
21:00+13e1282100 0.0 101679
6 august, fri
fri600:00+12ne258943 0.0 1016158
03:00+10nne269750 0.0 1015140
06:00+11nne269329 0.0 1015156
09:00+16ne37643 0.0 1014817
12:00+20ne584862 0.0 10131870
15:00+19ene575298 0.0 10121733
18:00+17ene5769100 0.0 10121042
21:00+15ene4118499 0.0 1011703
7 august, sat
sat700:00+14ene51187100 0.0 1011591
03:00+14ene51287100 0.0 1010589
06:00+13ene51291100 0.0 1009608
09:00+14ene51290100 0.1 1009635
12:00+16ene41186100 0.0 1009627
15:00+16e41096100 1.0 1008644
18:00+15ene3999100 1.5 1008409
21:00+15e2699100 1.8 1008363
8 august, sun
sun800:00+15ene23100100 0.1 1009127
03:00+15ene129999 0.1 100962
06:00+16sse1399100 0.0 1010116
09:00+16sw1397100 0.1 1010203
12:00+18sw239198 0.1 1011420
15:00+22sw126642 0.1 1012960
18:00+22wnw127358 0.7 1012408
21:00+17nw1191100 0.8 101311